Track STARLINK-1994 now! 10-day predictions STARLINK-1994 is classified as:
1 47589U 21009AT 21058.58334491 .00018678 00000-0 20922-3 0 9996 2 47589 53.0538 9.4997 0001253 70.5068 318.7078 15.62769052 4296